Other Public Products
Issued by NWS Grand Forks, ND

Home | Current Version | Previous Version | Graphics & Text | Print | Product List | Glossary On
Versions: 1 2 3 4 5 6 7 8 9 10 11 12 13 14 15 16 17 18 19 20 21 22 23 24 25 26 27 28 29 30 31 32 33 34 35 36 37 38 39 40 41 42 43 44 45 46 47 48 49 50
771
FPUS83 KFGF 291731
OPUFGF
PRAIRIE TO PINES WEATHER ROUNDUP
NATIONAL WEATHER SERVICE EASTERN NORTH DAKOTA/GRAND FORKS ND
1200 PM CDT FRI APR 29 2016

 **SATELLITE DATA USED TO AUGMENT SKY COVER AT AUTOMATED STATIONS**
 *****  WEATHER ACROSS EASTERN NORTH DAKOTA  *****

CITY           SKY/WX    TMP DP  RH WIND       PRES   REMARKS
GRAND FORKS    MOSUNNY   57  32  38 E13       30.22S
GRAND FORKS AF SUNNY     56  31  37 E12       30.22S
GRAND CITY NWS NOT AVBL
BUXTON         NOT AVBL
DEVILS LAKE    SUNNY     53  30  41 NE13      30.23S
FARGO          SUNNY     59  33  37 VRB3      30.17F
WAHPETON ARPT  SUNNY     55  32  41 NE7       30.14F
$$

 *****  WEATHER ACROSS CENTRAL AND WESTERN NORTH DAKOTA  *****

CITY           SKY/WX    TMP DP  RH WIND       PRES   REMARKS
JAMESTOWN      SUNNY     57  31  37 E9        30.16F
BISMARCK       MOSUNNY   55  30  38 NE10      30.16F
MINOT          SUNNY     58  24  27 VRB7      30.20F
MINOT AFB      SUNNY     54  25  32 E12       30.19F
GARRISON         N/A     54  21  27 SE13G22   30.18F
WILLISTON      PTSUNNY   54  27  35 SE14      30.18S
DICKINSON      PTSUNNY   49  29  46 E15       30.11F
HETTINGER      PTSUNNY   51  30  44 E7        30.12R
$$

 *****  OTHER OBSERVATIONS NORTHEAST NORTH DAKOTA  *****

CITY           SKY/WX    TMP DP  RH WIND       PRES   REMARKS
WALHALLA       FAIR      54  28  37 NE8       30.26S
LANGDON        FAIR      57  27  30 VRB6G17   30.24S
CAVALIER       FAIR      55  32  41 SE3       30.25S
GRAFTON        FAIR      57  30  35 VRB7G18   30.25S
CANDO          FAIR      57  27  30 SE7G16    30.24F
FORT TOTTEN    NOT AVBL
ROLLA          FAIR      54  19  26 E9        30.24S
RUGBY          FAIR      54  25  32 E12G17    30.22S
 ***** THE ABOVE OBSERVATIONS ARE NON NWS ARE NOT QUALITY
        CONTROLLED AND MAY MIS-REPORT RAIN FOR SNOW...
$$

 *****  OTHER OBSERVATIONS SOUTHEAST NORTH DAKOTA *****

CITY           SKY/WX    TMP DP  RH WIND       PRES   REMARKS
COOPERSTOWN    NOT AVBL
VALLEY CITY    FAIR      55  32  41 E10G18    30.18F
OAKES            N/A    N/A N/A N/A MISG        N/A
GWINNER        FAIR      57  36  44 NE14      30.14F
SHEYENNE NWR     N/A     58  36  42 NE8       29.95
BUFFALO        NOT AVBL
WYNDMERE         N/A     57  39  51 N10         N/A
 ***** THE ABOVE OBSERVATIONS ARE NON NWS ARE NOT QUALITY
       CONTROLLED AND MAY MIS-REPORT RAIN FOR SNOW...
$$

  *****  WEATHER ACROSS NORTHERN MINNESOTA  *****

CITY           SKY/WX    TMP DP  RH WIND       PRES   REMARKS
FLAG ISLAND    SUNNY     46  32  57 N13       30.23S
WARROAD        SUNNY     48  36  61 E7        30.26R
ROSEAU         SUNNY     54  36  50 NE9       30.24S
HALLOCK        SUNNY     57  27  30 NE5       30.23S
THF RVR FALLS  SUNNY     54  30  40 NE10      30.22F
HALSTAD        NOT AVBL
FOSSTON        SUNNY     55  32  41 NE10G18   30.20S
BAUDETTE       MOSUNNY   54  29  38 E8        30.22S
WASKISH        SUNNY     55  34  44 NE10G21   30.20S
CROOKSTON      SUNNY     57  32  38 E7G16     30.22S
$$
  *****  WEATHER ACROSS CENTRAL AND WEST MINNESOTA  *****

CITY           SKY/WX    TMP DP  RH WIND       PRES   REMARKS
BEMIDJI        SUNNY     54  32  43 NE8       30.18S
PARK RAPIDS    MOSUNNY   55  29  36 SE3       30.15F
WADENA         MOSUNNY   54  36  50 N8        30.15F
DETROIT LAKES  SUNNY     55  32  41 N3        30.16F
MOORHEAD       SUNNY     55  34  44 NE9       30.16F
FERGUS FALLS   SUNNY     54  37  54 NE5       30.14F
ELBOW LAKE     FAIR      52  38  57 NE7       30.15F
MORRIS MN      SUNNY     54  41  62 N10       30.14F
STAPLES        MOSUNNY   54  30  40 NE3       30.15F
WHEATON        SUNNY     57  39  51 N6        30.17S
$$
  *****  WEATHER ELSEWHERE ACROSS MINNESOTA  *****

CITY           SKY/WX    TMP DP  RH WIND       PRES   REMARKS
DULUTH         MOSUNNY   50  29  44 VRB3      30.18F
INTRNTL FALLS  SUNNY     50  31  48 E7        30.22S
ELY            CLOUDY    48  28  46 NE10      30.20S
CLOQUET        SUNNY     52  27  37 E7        30.17F
BRAINERD       MOSUNNY   54  29  38 VRB5      30.16F
HIBBING        CLOUDY    50  28  42 VRB3      30.18S
ALEXANDRIA     SUNNY     53  37  54 N10       30.17S
SAINT CLOUD    SUNNY     51  34  52 N13G23    30.15F
MINNEAPOLIS    MOSUNNY   51  32  48 N10G21    30.15S
$$

  *****  WEATHER ACROSS SOUTH DAKOTA  *****

CITY           SKY/WX    TMP DP  RH WIND       PRES   REMARKS
SIOUX FALLS    CLOUDY    44  38  79 E12       30.14R
BROOKINGS      CLOUDY    46  39  76 NE14G22   30.12S
WATERTOWN      MOSUNNY   50  36  58 NE15      30.13S
HURON          PTSUNNY   52  39  61 E16       30.12S
SISSETON         N/A     55  38  52 E8        30.13F
ABERDEEN       SUNNY     54  38  54 NE6       30.14F
MITCHELL       CLOUDY    47  39  74 E16       30.13S
PIERRE         PTSUNNY   51  36  56 E16       30.10R
MOBRIDGE       SUNNY     55  36  48 NE9       30.09F
RAPID CITY     CLOUDY    40  34  79 E8        30.09S
$$

  *****  SOME WEATHER IN NEARBY STATES *****

CITY           SKY/WX    TMP DP  RH WIND       PRES   REMARKS
GLASGOW MT     CLOUDY    47  36  65 SE10      30.11F
GREAT FALLS MT MOSUNNY   44  30  57 CALM      29.97S
CHEYENNE WY    LGT SNOW  33  32  96 SE6       29.95S FOG
SCOTTSBLUFF NE CLOUDY    42  34  73 NE9       30.01R
OMAHA NE       CLOUDY    48  39  71 NE12      30.08F
DES MOINES IA  CLOUDY    49  41  74 NE14      30.09F
DAVENPORT IA   CLOUDY    46  40  79 SE7       30.13R
CHICAGO IL     CLOUDY    47  39  74 NE12      30.09F
EAU CLAIRE WI  MOSUNNY   52  37  56 E8        30.13S
LA CROSSE WI   CLOUDY    49  36  61 NE7       30.14R
$$

  *****  SOME NATIONAL WEATHER *****

CITY           SKY/WX    TMP DP  RH WIND       PRES   REMARKS
LA GUARDIA NY  PTSUNNY   57  19  22 E21       30.10F
RALEIGH NC     PTSUNNY   72  61  68 VRB6      29.99S
ATLANTA GA     PTSUNNY   84  51  31 MISG      30.01F
NEW ORLEANS LA PTSUNNY   85  72  65 SE18G25   29.91F HX  91
OKLAHOMA CITY  CLOUDY    63  61  93 E17       29.72F
ALBUQUERQUE NM PTSUNNY   52  26  36 SW12      29.86F
SALT LAKE CITY LGT RAIN  49  33  54 N3        29.90R
LOS ANGELES CA PTSUNNY   63  48  58 VRB3      30.04R
BOISE ID       MOSUNNY   57  39  51 NW10      29.90F
SEATTLE WA     LGT RAIN  49  45  86 CALM      30.12R
$$

*** WEATHER ACROSS MANITOBA...SASKATCHEWAN AND ONTARIO ***
                ***ONTARIO***

CITY           SKY/WX    TMP DP  RH WIND       PRES   REMARKS
GERALDTON      CLOUDY    41  30  65 NE6       30.22S
THUNDER BAY    PTSUNNY   52  30  43 E9        30.19F
SIOUX LOOKOUT  PTSUNNY   45  30  57 E3        30.25S
TORONTO        PTSUNNY   50  21  32 E8G17     30.06F
BIG TROUT LK   MOSUNNY   41  25  52 N8        30.31F
PICKLE LAKE    PTSUNNY   41  27  56 N5        30.27S
DRYDEN         SUNNY     48  30  49 NE7       30.23S
KENORA         MOSUNNY   50  30  46 E8G17     30.24S
$$
                *** MANITOBA***

CITY           SKY/WX    TMP DP  RH WIND       PRES   REMARKS
BRANDON        MOSUNNY   57  10  15 SE12G17   30.26S
DAUPHIN        SUNNY     55  18  22 E13       30.29S
ISLAND LAKE    MOSUNNY   45  18  33 W7        30.36S
PILOT MOUND      N/A     55  19  24 E6          N/A
THE PAS        CLOUDY    55  16  21 S10       30.29F
THOMPSON       PTSUNNY   48  18  29 S9        30.32S
WINNIPEG       MOSUNNY   55  30  38 NE6       30.27R
LYNN LAKE      PTSUNNY   55  27  33 SW9       30.22S
CHURCHILL      SUNNY     30  19  64 E9        30.46F WCI  22
GILLAM         PTSUNNY   41  21  45 NE8       30.39F
$$
                ***SASKATCHEWAN***

CITY           SKY/WX    TMP DP  RH WIND       PRES   REMARKS
ESTEVAN        PTSUNNY   57  19  23 E14       30.20S
KINDERSLEY     MOSUNNY   57  23  26 SE15G23   30.08S
LLOYDMINSTER   PTSUNNY   59  25  27 SE15G25   30.06S
PRINCE ALBERT  MOSUNNY   59  21  23 S14       30.19S
REGINA         MOSUNNY   57  12  17 SE15G25   30.20R
YORKTON        SUNNY     55  16  21 E12G17    30.25F  C1F1C2F2C3F3C4F4C5F5C6F6C7F7C8F8C9F9CaFaCbFbCcFcCdFdCe!



USA.gov is the U.S. government's official web portal to all federal, state and local government web resources and services.